Bryce Canyon, UT

7:06 AM MST on December 08, 2019 (GMT -0700)
Bryce Canyon

Weather History for KBCE - October, 2019

Change the Weather History Date:

Wednesday, October 30, 2019

  Actual Average Record
Temperature  
Mean Temperature 18 °F -  
Max Temperature 36 °F 48 °F 66 °F (2008)
Min Temperature 0 °F 21 °F 0 °F (1971)
Degree Days  
Heating Degree Days 48    
Moisture  
Dew Point -8 °F    
Average Humidity 45    
Maximum Humidity 80    
Minimum Humidity 10    
Precipitation  
Precipitation 0.00 in - - ()
Sea Level Pressure  
Sea Level Pressure 30.39 in    
Wind  
Wind Speed 10 mph (NNW)    
Max Wind Speed 16 mph    
Max Gust Speed 21 mph    
Visibility 10 miles    
Events      
Averages and records for this station are not official NWS values.
T = Trace of Precipitation, MM = Missing Value Source: NWS Daily Summary

Daily Weather History Graph

Daily Weather History Graph

Search for Another Location

Airport or City:

Astronomy

Oct. 30, 2019 Rise Set
Actual Time 7:51 AM MDT 6:32 PM MDT
Civil Twilight 7:24 AM MDT 6:59 PM MDT
Nautical Twilight 6:53 AM MDT 7:30 PM MDT
Astronomical Twilight 6:23 AM MDT 8:00 PM MDT
Moon 10:36 AM MDT (10/30) 8:45 PM MDT (10/30)
Length of Visible Light 11h 34m
Length of Day
10h 40m
Waxing Crescent, 9% of the Moon is Illuminated
Oct 30
Waxing Crescent
Nov 4
First Quarter
Nov 12
Full
Nov 19
Last Quarter
Nov 26
New

Hourly Weather History & Observations

Time (MDT) Temp. Windchill Dew Point Humidity Pressure Visibility Wind Dir Wind Speed Gust Speed Precip Events Conditions
12:53 AM 7.0 °F -9.1 °F -2.9 °F 64% 30.12 in 10.0 mi NNW 12.7 mph - N/A   Clear
1:53 AM 7.0 °F -9.8 °F -4.0 °F 61% 30.14 in 10.0 mi North 13.8 mph - N/A   Clear
2:53 AM 5.0 °F -9.1 °F -4.0 °F 66% 30.20 in 10.0 mi NW 9.2 mph - N/A   Clear
3:53 AM 5.0 °F -11.6 °F -2.9 °F 70% 30.21 in 10.0 mi NW 12.7 mph - N/A   Clear
4:53 AM 3.0 °F -9.3 °F -2.9 °F 76% 30.26 in 10.0 mi WNW 6.9 mph - N/A   Clear
5:53 AM 3.0 °F -11.5 °F -2.9 °F 76% 30.32 in 10.0 mi WNW 9.2 mph - N/A   Clear
6:53 AM 3.0 °F -10.5 °F -2.0 °F 80% 30.39 in 10.0 mi WNW 8.1 mph - N/A   Clear
7:53 AM -0.0 °F -13.0 °F -5.1 °F 79% 30.44 in 10.0 mi West 6.9 mph - N/A   Clear
8:53 AM 7.0 °F -4.5 °F -0.9 °F 70% 30.43 in 10.0 mi WNW 6.9 mph - N/A   Clear
9:53 AM 10.9 °F 2.9 °F -2.0 °F 56% 30.44 in 10.0 mi NNW 4.6 mph - N/A   Clear
10:53 AM 17.1 °F 7.6 °F -0.9 °F 45% 30.44 in 10.0 mi NW 6.9 mph - N/A   Clear
11:53 AM 21.9 °F - -2.9 °F 34% 30.44 in 10.0 mi North - - N/A   Clear
12:53 PM 28.9 °F 18.6 °F -11.9 °F 17% 30.39 in 10.0 mi ENE 12.7 mph - N/A   Clear
1:53 PM 30.0 °F 20.0 °F -14.1 °F 14% 30.37 in 10.0 mi ENE 12.7 mph - N/A   Clear
2:53 PM 33.1 °F 22.6 °F -16.1 °F 11% 30.36 in 10.0 mi ENE 16.1 mph 20.7 mph N/A   Clear
3:53 PM 35.1 °F 26.9 °F -17.0 °F 10% 30.35 in 10.0 mi ENE 11.5 mph 20.7 mph N/A   Clear
4:53 PM 35.1 °F 26.9 °F -16.1 °F 11% 30.37 in 10.0 mi ENE 11.5 mph - N/A   Clear
5:53 PM 30.9 °F 25.2 °F -9.9 °F 17% 30.40 in 10.0 mi Variable 5.8 mph - N/A   Clear
6:53 PM 21.9 °F 11.0 °F -8.0 °F 27% 30.47 in 10.0 mi SE 10.4 mph - N/A   Clear
7:53 PM 19.9 °F 8.6 °F -8.0 °F 29% 30.53 in 10.0 mi SE 10.4 mph - N/A   Clear
8:53 PM 10.0 °F - -11.0 °F 38% 30.57 in 10.0 mi Calm Calm - N/A   Clear
9:53 PM 6.1 °F -2.8 °F -14.1 °F 39% 30.57 in 10.0 mi West 4.6 mph - N/A   Clear
10:53 PM 5.0 °F -8.1 °F -14.1 °F 41% 30.57 in 10.0 mi West 8.1 mph - N/A   Clear
11:53 PM 3.9 °F -6.9 °F -13.0 °F 46% 30.54 in 10.0 mi SSW 5.8 mph - N/A   Clear